Time,TemperatureF,DewpointF,PressureIn,WindDirection,WindDirectionDegrees,WindSpeedMPH,WindSpeedGustMPH,Humidity,HourlyPrecipIn,Conditions,Clouds,dailyrainin,SolarRadiationWatts/m^2,SoftwareType,DateUTC
2013-08-18 00:01:00,55.0,54.0,-100.00,South,179,4.0,10.0,95,0.05,,,0.11,0.000000,,2013-08-18 08:01:00,
2013-08-18 00:12:00,55.0,54.0,-100.00,South,179,4.0,10.0,95,0.05,,,0.11,0.000000,,2013-08-18 08:12:00,
2013-08-18 00:21:00,55.0,54.0,-100.00,South,179,4.0,10.0,95,0.05,,,0.11,0.000000,,2013-08-18 08:21:00,
2013-08-18 00:52:00,55.0,54.0,-100.00,SSW,209,4.0,11.0,97,0.10,,,0.21,0.000000,,2013-08-18 08:52:00,
2013-08-18 01:01:00,55.0,54.0,-100.00,SSW,209,4.0,11.0,97,0.10,,,0.21,0.000000,,2013-08-18 09:01:00,
2013-08-18 01:11:00,55.0,54.0,-100.00,SSW,209,4.0,11.0,97,0.10,,,0.21,0.000000,,2013-08-18 09:11:00,
2013-08-18 01:21:00,55.0,54.0,-100.00,SSW,209,4.0,11.0,97,0.10,,,0.21,0.000000,,2013-08-18 09:21:00,
2013-08-18 01:53:00,54.0,53.0,-100.00,SW,221,2.0,10.0,98,0.05,,,0.26,0.000000,,2013-08-18 09:53:00,
2013-08-18 02:03:00,54.0,53.0,-100.00,SW,221,2.0,10.0,98,0.05,,,0.26,0.000000,,2013-08-18 10:03:00,
2013-08-18 02:13:00,54.0,53.0,-100.00,SW,221,2.0,10.0,98,0.05,,,0.26,0.000000,,2013-08-18 10:13:00,
2013-08-18 02:22:00,54.0,53.0,-100.00,SW,221,2.0,10.0,98,0.05,,,0.26,0.000000,,2013-08-18 10:22:00,
2013-08-18 02:52:00,54.0,54.0,-100.00,SSW,194,3.0,7.0,99,0.03,,,0.29,0.000000,,2013-08-18 10:52:00,
2013-08-18 03:02:00,54.0,54.0,-100.00,SSW,194,3.0,7.0,99,0.03,,,0.29,0.000000,,2013-08-18 11:02:00,
2013-08-18 03:11:00,54.0,54.0,-100.00,SSW,194,3.0,7.0,99,0.03,,,0.29,0.000000,,2013-08-18 11:11:00,
2013-08-18 03:21:00,54.0,54.0,-100.00,SSW,194,3.0,7.0,99,0.03,,,0.29,0.000000,,2013-08-18 11:21:00,
2013-08-18 03:52:00,54.0,54.0,-100.00,SSW,204,2.0,7.0,99,0.03,,,0.32,0.000000,,2013-08-18 11:52:00,
2013-08-18 04:01:00,54.0,54.0,-100.00,SSW,204,2.0,7.0,99,0.03,,,0.32,0.000000,,2013-08-18 12:01:00,
2013-08-18 04:11:00,54.0,54.0,-100.00,SSW,204,2.0,7.0,99,0.03,,,0.32,0.000000,,2013-08-18 12:11:00,
2013-08-18 04:21:00,54.0,54.0,-100.00,SSW,204,2.0,7.0,99,0.03,,,0.32,0.000000,,2013-08-18 12:21:00,
2013-08-18 04:52:00,53.0,53.0,-100.00,SSW,208,2.0,7.0,100,0.11,,,0.43,0.000000,,2013-08-18 12:52:00,
2013-08-18 05:01:00,53.0,53.0,-100.00,SSW,208,2.0,7.0,100,0.11,,,0.43,0.000000,,2013-08-18 13:01:00,
2013-08-18 05:11:00,53.0,53.0,-100.00,SSW,208,2.0,7.0,100,0.11,,,0.43,0.000000,,2013-08-18 13:11:00,
2013-08-18 05:21:00,53.0,53.0,-100.00,SSW,208,2.0,7.0,100,0.11,,,0.43,0.000000,,2013-08-18 13:21:00,
2013-08-18 05:52:00,53.0,53.0,-100.00,SSW,203,1.0,6.0,100,0.08,,,0.51,0.000000,,2013-08-18 13:52:00,
2013-08-18 06:01:00,53.0,53.0,-100.00,SSW,203,1.0,6.0,100,0.08,,,0.51,0.000000,,2013-08-18 14:01:00,
2013-08-18 06:11:00,53.0,53.0,-100.00,SSW,203,1.0,6.0,100,0.08,,,0.51,0.000000,,2013-08-18 14:11:00,
2013-08-18 06:21:00,53.0,53.0,-100.00,SSW,203,1.0,6.0,100,0.08,,,0.51,0.000000,,2013-08-18 14:21:00,
2013-08-18 06:53:00,53.0,53.0,-100.00,SSW,201,0.0,2.0,100,0.01,,,0.52,0.000000,,2013-08-18 14:53:00,
2013-08-18 07:01:00,53.0,53.0,-100.00,SSW,201,0.0,2.0,100,0.01,,,0.52,0.000000,,2013-08-18 15:01:00,
2013-08-18 07:11:00,53.0,53.0,-100.00,SSW,201,0.0,2.0,100,0.01,,,0.52,0.000000,,2013-08-18 15:11:00,
2013-08-18 07:22:00,53.0,53.0,-100.00,SSW,201,0.0,2.0,100,0.01,,,0.52,0.000000,,2013-08-18 15:22:00,
2013-08-18 07:54:00,53.0,53.0,-100.00,South,181,0.0,1.0,100,0.01,,,0.53,7.000000,,2013-08-18 15:54:00,
2013-08-18 08:03:00,53.0,53.0,-100.00,South,181,0.0,1.0,100,0.01,,,0.53,7.000000,,2013-08-18 16:03:00,
2013-08-18 08:13:00,53.0,53.0,-100.00,South,181,0.0,1.0,100,0.01,,,0.53,7.000000,,2013-08-18 16:13:00,
2013-08-18 08:23:00,53.0,53.0,-100.00,South,181,0.0,1.0,100,0.01,,,0.53,7.000000,,2013-08-18 16:23:00,
2013-08-18 08:52:00,54.0,54.0,-100.00,South,173,2.0,4.0,100,0.03,,,0.56,13.000000,,2013-08-18 16:52:00,
2013-08-18 09:02:00,54.0,54.0,-100.00,South,173,2.0,4.0,100,0.03,,,0.56,13.000000,,2013-08-18 17:02:00,
2013-08-18 09:12:00,54.0,54.0,-100.00,South,173,2.0,4.0,100,0.03,,,0.56,13.000000,,2013-08-18 17:12:00,
2013-08-18 09:23:00,54.0,54.0,-100.00,South,173,2.0,4.0,100,0.03,,,0.56,13.000000,,2013-08-18 17:23:00,
2013-08-18 09:52:00,55.0,55.0,-100.00,SSE,155,0.0,4.0,100,0.02,,,0.57,36.000000,,2013-08-18 17:52:00,
2013-08-18 10:02:00,55.0,55.0,-100.00,SSE,155,0.0,4.0,100,0.02,,,0.57,36.000000,,2013-08-18 18:02:00,
2013-08-18 10:12:00,55.0,55.0,-100.00,SSE,155,0.0,4.0,100,0.02,,,0.57,36.000000,,2013-08-18 18:12:00,
2013-08-18 10:21:00,55.0,55.0,-100.00,SSE,155,0.0,4.0,100,0.02,,,0.57,36.000000,,2013-08-18 18:21:00,
2013-08-18 10:52:00,57.0,57.0,-100.00,NNE,16,0.0,1.0,100,0.02,,,0.59,70.000000,,2013-08-18 18:52:00,
2013-08-18 11:01:00,57.0,57.0,-100.00,NNE,16,0.0,1.0,100,0.02,,,0.59,70.000000,,2013-08-18 19:01:00,
2013-08-18 11:11:00,57.0,57.0,-100.00,NNE,16,0.0,1.0,100,0.02,,,0.59,70.000000,,2013-08-18 19:11:00,
2013-08-18 11:22:00,57.0,57.0,-100.00,NNE,16,0.0,1.0,100,0.02,,,0.59,70.000000,,2013-08-18 19:22:00,
2013-08-18 11:52:00,58.0,58.0,-100.00,East,89,0.0,2.0,100,0.01,,,0.60,84.000000,,2013-08-18 19:52:00,
2013-08-18 12:02:00,58.0,58.0,-100.00,East,89,0.0,2.0,100,0.01,,,0.60,84.000000,,2013-08-18 20:02:00,
2013-08-18 12:12:00,58.0,58.0,-100.00,East,89,0.0,2.0,100,0.01,,,0.60,84.000000,,2013-08-18 20:12:00,
2013-08-18 12:22:00,58.0,58.0,-100.00,East,89,0.0,2.0,100,0.01,,,0.60,84.000000,,2013-08-18 20:22:00,
2013-08-18 12:52:00,60.0,59.0,-100.00,North,10,2.0,3.0,96,0.01,,,0.61,155.000000,,2013-08-18 20:52:00,
2013-08-18 13:01:00,60.0,59.0,-100.00,North,10,2.0,3.0,96,0.01,,,0.61,155.000000,,2013-08-18 21:01:00,
2013-08-18 13:11:00,60.0,59.0,-100.00,North,10,2.0,3.0,96,0.01,,,0.61,155.000000,,2013-08-18 21:11:00,
2013-08-18 13:21:00,60.0,59.0,-100.00,North,10,2.0,3.0,96,0.01,,,0.61,155.000000,,2013-08-18 21:21:00,
2013-08-18 13:53:00,61.0,59.0,-100.00,NE,41,2.0,4.0,93,0.00,,,0.61,172.000000,,2013-08-18 21:53:00,
2013-08-18 14:03:00,61.0,59.0,-100.00,NE,41,2.0,4.0,93,0.00,,,0.61,172.000000,,2013-08-18 22:03:00,
2013-08-18 14:13:00,61.0,59.0,-100.00,NE,41,2.0,4.0,93,0.00,,,0.61,172.000000,,2013-08-18 22:13:00,
2013-08-18 14:23:00,61.0,59.0,-100.00,NE,41,2.0,4.0,93,0.00,,,0.61,172.000000,,2013-08-18 22:23:00,
2013-08-18 14:52:00,59.0,57.0,-100.00,ENE,67,2.0,4.0,92,0.00,,,0.61,104.000000,,2013-08-18 22:52:00,
2013-08-18 15:02:00,59.0,57.0,-100.00,ENE,67,2.0,4.0,92,0.00,,,0.61,104.000000,,2013-08-18 23:02:00,
2013-08-18 15:11:00,59.0,57.0,-100.00,ENE,67,2.0,4.0,92,0.00,,,0.61,104.000000,,2013-08-18 23:11:00,
2013-08-18 15:22:00,59.0,57.0,-100.00,ENE,67,2.0,4.0,92,0.00,,,0.61,104.000000,,2013-08-18 23:22:00,
2013-08-18 15:52:00,58.0,58.0,-100.00,NE,50,0.0,3.0,99,0.00,,,0.61,30.000000,,2013-08-18 23:52:00,
2013-08-18 16:02:00,58.0,58.0,-100.00,NE,50,0.0,3.0,99,0.00,,,0.61,30.000000,,2013-08-19 00:02:00,
2013-08-18 16:11:00,58.0,58.0,-100.00,NE,50,0.0,3.0,99,0.00,,,0.61,30.000000,,2013-08-19 00:11:00,
2013-08-18 16:21:00,58.0,58.0,-100.00,NE,50,0.0,3.0,99,0.00,,,0.61,30.000000,,2013-08-19 00:21:00,
2013-08-18 16:52:00,59.0,59.0,-100.00,NW,316,1.0,3.0,100,0.03,,,0.64,61.000000,,2013-08-19 00:52:00,
2013-08-18 17:02:00,59.0,59.0,-100.00,NW,316,1.0,3.0,100,0.03,,,0.64,61.000000,,2013-08-19 01:02:00,
2013-08-18 17:11:00,59.0,59.0,-100.00,NW,316,1.0,3.0,100,0.03,,,0.64,61.000000,,2013-08-19 01:11:00,
2013-08-18 17:22:00,59.0,59.0,-100.00,NW,316,1.0,3.0,100,0.03,,,0.64,61.000000,,2013-08-19 01:22:00,
2013-08-18 17:52:00,60.0,59.0,-100.00,SE,144,2.0,4.0,97,0.02,,,0.66,107.000000,,2013-08-19 01:52:00,
2013-08-18 18:06:00,60.0,59.0,-100.00,SE,144,2.0,4.0,97,0.02,,,0.66,107.000000,,2013-08-19 02:06:00,
2013-08-18 18:11:00,60.0,59.0,-100.00,SE,144,2.0,4.0,97,0.02,,,0.66,107.000000,,2013-08-19 02:11:00,
2013-08-18 18:21:00,60.0,59.0,-100.00,SE,144,2.0,4.0,97,0.02,,,0.66,107.000000,,2013-08-19 02:21:00,
2013-08-18 18:52:00,60.0,59.0,-100.00,East,89,2.0,3.0,95,0.00,,,0.66,120.000000,,2013-08-19 02:52:00,
2013-08-18 19:01:00,60.0,59.0,-100.00,East,89,2.0,3.0,95,0.00,,,0.66,120.000000,,2013-08-19 03:01:00,
2013-08-18 19:11:00,60.0,59.0,-100.00,East,89,2.0,3.0,95,0.00,,,0.66,120.000000,,2013-08-19 03:11:00,
2013-08-18 19:21:00,60.0,59.0,-100.00,East,89,2.0,3.0,95,0.00,,,0.66,120.000000,,2013-08-19 03:21:00,
2013-08-18 19:53:00,59.0,58.0,-100.00,East,89,1.0,4.0,96,0.00,,,0.66,61.000000,,2013-08-19 03:53:00,
2013-08-18 20:03:00,59.0,58.0,-100.00,East,89,1.0,4.0,96,0.00,,,0.66,61.000000,,2013-08-19 04:03:00,
2013-08-18 20:12:00,59.0,58.0,-100.00,East,89,1.0,4.0,96,0.00,,,0.66,61.000000,,2013-08-19 04:12:00,
2013-08-18 20:23:00,59.0,58.0,-100.00,East,89,1.0,4.0,96,0.00,,,0.66,61.000000,,2013-08-19 04:23:00,
2013-08-18 21:22:00,58.0,58.0,-100.00,ESE,108,0.0,3.0,99,0.00,,,0.66,24.000000,,2013-08-19 05:22:00,
2013-08-18 21:52:00,57.0,57.0,-100.00,NNE,31,1.0,2.0,100,0.00,,,0.63,10.000000,,2013-08-19 05:52:00,
2013-08-18 22:02:00,57.0,57.0,-100.00,NNE,31,1.0,2.0,100,0.00,,,0.63,10.000000,,2013-08-19 06:02:00,
2013-08-18 22:11:00,57.0,57.0,-100.00,NNE,31,1.0,2.0,100,0.00,,,0.63,10.000000,,2013-08-19 06:11:00,
2013-08-18 22:21:00,57.0,57.0,-100.00,NNE,31,1.0,2.0,100,0.00,,,0.63,10.000000,,2013-08-19 06:21:00,
2013-08-18 22:52:00,55.0,55.0,-100.00,SSE,158,1.0,2.0,100,0.00,,,0.61,1.000000,,2013-08-19 06:52:00,
2013-08-18 23:01:00,55.0,55.0,-100.00,SSE,158,1.0,2.0,100,0.00,,,0.61,1.000000,,2013-08-19 07:01:00,
2013-08-18 23:11:00,55.0,55.0,-100.00,SSE,158,1.0,2.0,100,0.00,,,0.61,1.000000,,2013-08-19 07:11:00,
2013-08-18 23:21:00,55.0,55.0,-100.00,SSE,158,1.0,2.0,100,0.00,,,0.61,1.000000,,2013-08-19 07:21:00,
2013-08-18 23:52:00,53.0,53.0,-100.00,SSW,203,3.0,7.0,100,0.00,,,0.56,0.000000,,2013-08-19 07:52:00,